Precipitable_Water
2.31 2.33 2.29 2.00 1.20 1.07 0.87 1.18 1.34 1.21 1.19 1.35 1.32 1.29 1.21 1.24 1.01 0.73 1.56 1.66 1.73 1.70 1.86 1.90 1.89 1.87 1.84 1.80 1.79 1.78 1.77 1.72 1.72 1.74 1.76 1.79 1.80 1.72 1.79 1.85 1.82 1.91 2.10 2.14 2.09 1.95 1.70 1.85 1.79
2.18 2.19 2.03 1.49 0.91 0.79 0.85 1.17 1.01 1.11 1.23 1.34 1.30 1.31 1.23 1.11 1.46 1.36 1.38 1.70 1.74 1.75 1.81 1.89 1.92 1.87 1.83 1.81 1.80 1.77 1.75 1.70 1.67 1.79 1.85 1.90 1.89 1.84 1.76 1.85 1.83 1.92 2.12 2.10 2.08 1.93 1.64 1.89 1.82
2.05 2.10 1.55 1.16 0.98 0.78 0.81 1.07 1.09 1.26 1.34 1.32 1.26 1.39 1.23 1.07 1.37 1.31 1.57 1.73 1.77 1.76 1.82 1.83 1.92 1.86 1.84 1.82 1.80 1.80 1.79 1.68 1.73 1.72 1.86 1.91 1.94 1.87 1.74 1.81 1.83 1.94 2.09 2.08 2.02 1.91 1.68 1.83 1.81
2.06 1.84 1.60 1.02 1.09 1.13 1.10 1.13 1.11 1.13 1.16 1.33 1.24 1.01 1.28 1.42 1.25 1.48 1.68 1.69 1.67 1.74 1.80 1.81 1.89 1.86 1.85 1.84 1.81 1.82 1.82 1.71 1.78 1.70 1.82 1.89 1.90 1.81 1.80 1.80 1.83 1.93 2.04 2.02 1.96 1.69 1.73 1.87 1.94
1.96 1.57 1.10 1.10 1.13 1.30 1.26 1.39 1.29 1.15 1.15 1.22 1.21 1.04 1.04 1.45 1.63 1.59 1.61 1.63 1.56 1.72 1.78 1.82 1.87 1.82 1.84 1.85 1.86 1.89 1.86 1.75 1.70 1.72 1.80 1.85 1.84 1.81 1.83 1.89 1.88 1.94 1.98 1.94 1.79 1.62 1.81 1.90 1.93
1.54 1.47 1.04 1.02 1.02 1.20 1.36 1.40 1.40 1.26 1.23 1.16 1.07 1.03 1.18 1.56 1.63 1.71 1.60 1.59 1.64 1.58 1.69 1.79 1.81 1.82 1.85 1.89 1.93 1.95 1.86 1.84 1.74 1.78 1.72 1.80 1.87 1.89 1.95 1.97 1.94 1.92 1.94 1.95 1.84 1.91 1.96 1.92 1.90
1.32 1.15 1.02 1.08 1.04 1.06 1.20 1.43 1.40 1.34 1.29 1.17 1.16 0.92 1.20 1.40 1.72 1.69 1.62 1.67 1.63 1.61 1.60 1.68 1.79 1.82 1.85 1.92 1.92 1.94 1.86 1.85 1.78 1.83 1.68 1.71 1.78 1.93 2.01 1.98 2.02 1.91 1.96 1.96 1.95 1.96 1.94 1.87 1.84
1.38 1.21 0.99 1.10 0.99 1.05 1.23 1.26 1.34 1.32 1.21 1.33 1.27 0.95 0.95 1.36 1.68 1.66 1.68 1.66 1.66 1.61 1.61 1.64 1.73 1.81 1.83 1.86 1.94 1.91 1.87 1.87 1.84 1.85 1.80 1.75 1.71 1.76 1.91 2.01 2.05 1.96 1.95 1.96 1.99 1.94 1.87 1.87 1.90
1.27 0.98 0.94 1.03 0.89 0.98 1.21 1.16 1.36 1.46 1.19 1.18 1.23 1.19 1.30 1.52 1.65 1.59 1.50 1.58 1.61 1.59 1.60 1.67 1.65 1.72 1.80 1.80 1.90 1.88 1.87 1.95 1.92 1.95 1.84 1.83 1.86 1.73 1.79 1.93 2.01 1.99 1.92 1.92 1.92 1.95 1.83 1.86 1.95
0.89 0.90 0.93 1.15 1.13 0.99 1.12 1.06 1.10 1.10 1.12 1.13 1.10 1.21 1.42 1.49 1.53 1.46 1.43 1.43 1.55 1.57 1.62 1.65 1.64 1.65 1.72 1.75 1.79 1.84 1.79 1.95 1.98 1.96 2.00 2.07 1.99 1.82 1.77 1.88 1.97 1.95 1.96 1.98 1.97 1.97 1.97 1.90 1.94
0.88 0.78 1.02 1.10 1.12 1.09 1.05 1.05 1.10 1.06 1.03 1.10 0.87 1.01 1.28 1.43 1.48 1.48 1.49 1.58 1.54 1.64 1.75 1.71 1.68 1.65 1.61 1.65 1.70 1.74 1.73 1.86 1.96 1.90 2.08 2.24 2.20 2.08 1.97 1.91 1.93 1.91 1.93 1.96 2.01 1.99 2.02 1.98 1.98
0.79 0.98 1.14 1.19 1.21 1.16 1.02 1.09 1.00 1.08 1.05 1.21 1.14 1.18 1.26 1.37 1.40 1.48 1.47 1.52 1.58 1.67 1.68 1.66 1.65 1.58 1.55 1.57 1.62 1.62 1.69 1.74 1.85 1.86 1.96 2.11 2.09 2.08 2.02 2.01 1.86 1.83 1.90 1.89 1.90 1.93 2.02 1.99 2.01
0.68 0.83 1.06 1.21 1.13 1.19 1.19 1.02 0.99 1.07 1.28 1.23 1.25 1.29 1.26 1.33 1.45 1.62 1.69 1.69 1.66 1.65 1.71 1.65 1.59 1.50 1.46 1.45 1.48 1.55 1.53 1.57 1.71 1.80 2.03 2.03 2.04 2.03 2.03 1.97 1.87 1.76 1.90 1.98 1.94 1.98 1.96 2.01 2.07
0.56 0.62 0.76 0.98 1.08 1.15 1.10 1.07 1.11 1.08 1.29 1.26 1.26 1.27 1.24 1.27 1.37 1.55 1.70 1.71 1.72 1.76 1.72 1.77 1.55 1.46 1.42 1.39 1.49 1.47 1.51 1.54 1.66 1.80 2.01 2.03 2.05 2.03 1.98 1.83 1.77 1.84 1.97 2.04 2.04 2.07 2.04 2.13 2.21
0.55 0.51 0.65 0.84 1.00 1.05 1.14 0.91 0.94 1.09 1.17 1.15 1.22 1.17 1.28 1.31 1.43 1.45 1.60 1.69 1.81 1.83 1.83 1.78 1.78 1.66 1.43 1.42 1.53 1.56 1.67 1.67 1.75 1.84 1.95 2.01 2.06 2.00 2.00 1.94 1.85 1.95 2.03 2.13 2.17 2.20 2.19 2.20 2.23
0.51 0.55 0.50 0.78 0.94 0.99 0.95 0.67 0.88 1.01 1.08 1.05 1.14 1.18 1.22 1.33 1.35 1.46 1.61 1.75 1.87 1.91 1.89 1.92 1.92 1.70 1.54 1.50 1.64 1.64 1.71 1.79 1.88 1.95 1.95 1.98 1.99 2.03 1.95 1.94 1.97 1.99 2.06 2.11 2.12 2.18 2.20 2.27 2.22
0.49 0.42 0.51 0.62 0.95 0.91 0.92 0.65 0.81 0.98 1.00 0.97 1.10 1.17 1.21 1.31 1.39 1.45 1.50 1.68 1.83 1.89 1.93 2.03 2.02 1.85 1.78 1.73 1.77 1.71 1.71 1.75 1.88 1.94 1.99 1.99 2.00 1.99 1.89 1.85 1.96 2.08 2.13 2.08 2.13 2.18 2.19 2.13 2.15
0.40 0.41 0.54 0.59 0.70 0.80 0.79 0.71 0.80 0.93 0.91 0.93 1.03 1.15 1.22 1.24 1.33 1.44 1.46 1.54 1.76 1.83 1.87 2.03 2.00 1.97 1.83 1.85 1.83 1.81 1.71 1.72 1.82 1.94 1.98 2.02 2.08 2.07 1.99 1.91 1.85 1.96 2.03 2.05 2.06 2.06 2.18 2.14 2.14
0.47 0.48 0.52 0.56 0.59 0.52 0.70 0.77 0.76 0.89 0.92 0.90 0.99 1.11 1.17 1.21 1.42 1.52 1.50 1.51 1.57 1.70 1.80 1.84 1.84 1.82 1.76 1.74 1.70 1.66 1.53 1.57 1.68 1.80 1.92 1.98 2.05 2.10 2.07 1.98 1.96 2.00 1.97 2.07 2.14 2.12 2.10 2.12 2.18
0.46 0.46 0.46 0.48 0.46 0.42 0.51 0.64 0.73 0.84 0.80 0.85 0.88 0.96 1.05 1.21 1.33 1.50 1.51 1.45 1.44 1.54 1.68 1.75 1.80 1.85 1.77 1.71 1.66 1.64 1.62 1.64 1.62 1.71 1.78 1.89 1.91 1.94 1.99 2.00 1.98 1.99 1.95 2.02 2.09 2.06 1.99 2.09 2.12
0.40 0.37 0.36 0.34 0.39 0.37 0.47 0.56 0.64 0.76 0.84 0.85 0.92 1.01 1.01 1.08 1.21 1.39 1.39 1.31 1.39 1.40 1.45 1.52 1.56 1.73 1.87 1.89 1.91 1.81 1.81 1.78 1.72 1.67 1.78 1.86 1.86 1.93 1.96 2.03 2.00 2.00 2.02 1.93 2.03 2.05 1.99 1.84 1.99
0.26 0.28 0.29 0.29 0.26 0.26 0.33 0.28 0.55 0.58 0.64 0.72 0.82 0.98 1.06 1.10 1.20 1.34 1.31 1.23 1.27 1.30 1.41 1.43 1.48 1.52 1.60 1.73 1.82 1.83 1.71 1.57 1.68 1.72 1.82 1.90 1.95 1.96 1.97 2.08 2.09 2.03 2.02 1.98 1.98 2.04 2.01 1.97 1.83
0.23 0.25 0.24 0.25 0.24 0.25 0.29 0.33 0.44 0.57 0.53 0.62 0.70 0.87 1.04 1.11 1.22 1.26 1.11 1.12 1.21 1.32 1.32 1.38 1.45 1.49 1.53 1.61 1.62 1.69 1.63 1.72 1.76 1.78 1.79 1.80 1.88 1.97 2.03 2.04 2.04 2.10 2.10 2.07 2.01 2.03 2.00 2.04 1.97
0.22 0.20 0.20 0.24 0.24 0.18 0.28 0.33 0.35 0.44 0.49 0.59 0.66 0.90 0.98 1.09 1.28 1.20 1.00 1.06 1.09 1.24 1.26 1.31 1.35 1.44 1.53 1.56 1.62 1.61 1.61 1.63 1.64 1.73 1.72 1.81 1.89 1.96 2.03 2.07 2.07 2.09 2.13 2.09 2.06 2.05 2.06 2.05 2.08
0.18 0.16 0.12 0.13 0.15 0.15 0.27 0.28 0.36 0.42 0.53 0.59 0.62 0.78 0.93 1.03 1.18 1.06 0.83 0.93 1.03 1.11 1.18 1.23 1.27 1.30 1.49 1.57 1.55 1.58 1.63 1.68 1.64 1.66 1.72 1.80 1.92 2.02 2.06 2.13 2.09 2.13 2.19 2.19 2.17 2.04 2.05 2.06 2.09
0.18 0.18 0.14 0.10 0.10 0.13 0.24 0.22 0.31 0.42 0.63 0.70 0.76 0.84 0.91 0.97 1.09 1.00 0.82 0.93 1.04 1.11 1.15 1.24 1.27 1.27 1.42 1.53 1.59 1.64 1.68 1.72 1.73 1.70 1.67 1.74 1.93 2.02 2.05 2.08 2.14 2.19 2.24 2.29 2.25 2.22 2.10 2.11 2.10
0.19 0.17 0.20 0.16 0.16 0.12 0.14 0.22 0.38 0.50 0.54 0.62 0.73 0.86 0.91 0.97 1.12 0.92 0.99 1.08 1.10 1.09 1.11 1.20 1.34 1.35 1.42 1.54 1.65 1.69 1.75 1.73 1.78 1.82 1.82 1.77 1.95 2.02 2.02 2.08 2.20 2.21 2.30 2.34 2.24 2.16 2.08 2.10 2.08
0.20 0.22 0.17 0.17 0.12 0.10 0.11 0.15 0.23 0.28 0.36 0.47 0.63 0.78 0.89 0.96 1.11 1.02 1.06 1.20 1.22 1.18 1.12 1.21 1.33 1.37 1.40 1.53 1.63 1.70 1.79 1.78 1.80 1.84 1.84 1.89 1.99 2.01 2.04 2.10 2.20 2.20 2.26 2.27 2.17 2.09 2.11 2.08 2.08
0.20 0.19 0.20 0.20 0.17 0.13 0.10 0.11 0.22 0.27 0.27 0.28 0.46 0.73 0.82 0.91 0.95 1.14 1.03 1.14 1.24 1.33 1.11 1.09 1.22 1.34 1.40 1.48 1.55 1.62 1.70 1.73 1.78 1.77 1.79 1.84 1.91 1.97 2.03 2.21 2.22 2.15 2.13 2.07 1.99 1.94 2.00 2.00 2.00
0.24 0.23 0.23 0.17 0.15 0.16 0.15 0.13 0.20 0.22 0.27 0.31 0.47 0.71 0.79 0.83 1.00 1.06 1.15 1.15 1.20 1.27 1.10 0.98 1.12 1.22 1.33 1.40 1.48 1.56 1.70 1.73 1.69 1.72 1.77 1.89 1.89 1.97 1.98 1.99 2.00 1.99 1.97 1.98 1.86 1.91 1.95 1.93 1.90
Wind_Speed
12 11 9 8 9 7 8 7 8 8 7 4 8 4 3 4 3 2 10 15 17 17 17 16 16 15 15 14 14 14 13 12 12 11 10 10 11 11 11 12 12 13 14 15 16 16 15 15 16
13 12 10 9 10 8 7 8 7 7 6 8 6 5 3 3 3 9 14 15 17 17 17 16 15 15 14 14 13 13 12 11 11 11 10 9 11 12 12 12 12 13 14 15 16 15 15 15 15
13 9 9 9 9 8 7 6 10 10 9 7 5 4 4 3 7 14 13 16 17 16 16 16 15 14 13 13 12 12 11 10 10 10 10 11 12 12 12 12 12 13 14 14 13 13 13 13 14
9 9 9 10 10 6 6 7 9 8 6 2 6 7 7 5 12 11 15 17 16 15 15 15 15 14 13 12 12 11 10 10 9 9 11 12 12 12 12 12 12 13 13 12 12 12 13 13 13
9 8 8 7 8 6 4 4 6 7 6 5 4 5 5 8 9 13 15 16 16 15 15 15 14 14 13 12 12 11 10 9 9 9 10 11 12 12 12 12 12 12 12 12 12 12 13 12 11
9 8 8 8 10 9 11 7 6 4 6 5 4 4 3 7 10 12 15 16 15 15 15 14 14 13 13 12 11 10 9 8 8 9 9 10 10 10 10 10 11 11 11 11 11 12 11 11 11
6 7 6 6 7 9 7 9 4 5 4 5 6 5 3 7 10 13 15 16 15 15 14 14 13 13 12 11 11 10 9 8 8 8 8 9 9 9 9 10 10 10 10 10 10 10 10 10 9
6 6 6 6 6 8 3 6 6 5 5 6 4 3 2 8 11 12 15 15 15 14 13 13 12 12 12 11 11 10 9 7 8 8 8 9 8 9 10 10 9 9 10 9 9 9 8 8 7
3 4 4 2 3 4 4 4 6 9 4 4 1 3 4 11 12 13 14 14 14 13 13 13 12 12 11 11 11 10 9 8 8 8 9 9 8 8 9 9 9 9 9 8 8 7 7 7 6
0 1 3 1 4 3 4 4 6 6 4 5 7 6 11 12 12 13 14 14 14 13 13 13 12 12 11 11 11 10 9 8 8 9 9 9 8 9 9 8 8 8 8 7 7 7 7 6 5
2 2 3 2 3 2 2 4 4 6 5 2 5 8 11 12 12 12 12 12 12 13 12 13 13 13 12 11 11 10 10 9 8 9 9 8 8 8 8 8 7 7 7 6 6 6 6 5 5
2 4 3 1 2 2 2 5 4 6 8 4 7 10 10 11 11 11 11 11 11 12 12 13 14 14 13 11 11 10 10 10 8 9 8 8 7 7 8 8 8 7 6 5 5 5 5 5 4
3 7 6 3 3 4 0 5 6 6 6 6 8 8 8 9 9 10 10 10 11 11 12 13 15 15 14 12 12 11 10 10 9 9 8 8 7 7 7 8 8 7 7 5 4 4 4 5 4
7 7 7 7 5 2 2 5 5 3 3 2 6 6 7 7 8 9 10 10 10 10 11 13 15 15 15 14 13 12 11 11 11 10 9 9 8 7 6 7 8 8 7 5 4 4 3 5 3
8 6 4 2 5 3 1 5 5 2 1 2 4 4 5 6 7 9 10 10 10 9 10 13 15 16 15 15 14 13 12 12 12 11 10 10 9 7 7 7 7 8 7 6 5 5 4 4 4
5 1 4 3 5 5 3 7 8 4 3 4 6 6 5 6 7 9 10 11 11 9 10 13 16 16 16 15 14 13 13 12 12 12 11 11 10 10 9 8 8 8 8 7 7 7 7 7 6
2 2 5 4 7 2 9 8 6 4 5 6 5 6 7 5 7 9 10 12 11 10 9 11 17 16 16 16 14 14 13 13 13 12 12 12 11 11 10 9 9 9 8 7 6 6 7 8 11
6 6 6 6 3 9 11 11 6 5 5 7 7 7 8 8 8 9 10 11 12 11 10 12 14 17 16 16 15 14 14 14 13 13 13 13 12 12 11 10 9 10 9 9 9 8 8 7 6
9 8 8 11 12 11 13 11 10 7 5 8 9 9 8 9 8 9 11 11 11 12 11 12 13 15 16 16 15 15 16 16 14 12 14 14 14 13 12 11 10 10 10 11 11 10 9 7 5
10 10 13 13 11 9 12 13 9 9 11 9 11 11 10 8 9 9 10 12 12 12 13 13 15 16 16 16 15 15 14 15 14 13 13 15 15 15 14 13 12 11 10 11 11 10 9 8 7
12 11 12 13 16 12 8 8 9 10 11 10 12 12 10 10 9 9 10 11 12 12 12 13 14 15 17 17 15 14 15 14 15 14 13 14 15 16 15 14 14 13 12 11 11 11 10 10 10
14 11 14 14 10 10 7 10 11 11 12 13 13 14 14 12 10 9 10 11 12 13 12 13 13 13 15 16 17 17 16 16 16 17 16 15 15 16 15 15 14 13 13 12 13 13 12 12 11
15 13 13 13 11 10 8 6 9 9 11 14 14 16 16 14 12 11 11 12 12 12 12 12 13 12 13 14 15 15 15 17 16 16 16 16 17 17 17 16 15 15 14 13 13 13 13 13 13
14 14 11 11 9 8 10 7 10 9 10 10 10 12 15 14 15 12 12 12 12 11 11 11 11 12 12 13 14 15 14 14 16 16 16 17 17 18 18 18 17 17 17 16 16 16 16 16 16
12 9 11 10 10 10 10 8 12 12 10 9 8 11 10 12 15 13 13 12 12 11 11 11 11 11 12 12 13 14 14 14 15 16 17 17 17 18 18 19 19 18 18 17 17 18 18 18 17
14 12 10 11 10 12 12 11 11 12 8 10 9 8 7 12 14 15 15 12 11 12 11 11 11 11 11 12 12 13 14 15 15 15 16 17 18 19 19 20 20 21 20 19 19 18 19 19 19
13 13 13 9 10 9 11 13 12 8 7 8 9 8 9 11 14 17 15 14 11 11 11 12 11 12 11 12 12 13 13 14 15 15 16 17 18 19 19 20 21 22 21 21 19 19 19 19 19
13 12 10 11 10 11 12 12 12 11 12 11 12 11 12 13 15 18 15 15 12 10 10 11 11 11 11 11 12 12 13 14 15 15 15 15 17 17 18 18 19 19 18 17 17 17 17 18 19
10 12 11 11 12 11 12 14 14 14 13 14 14 13 14 14 14 19 17 16 15 11 10 11 10 10 10 10 10 10 10 11 12 13 14 14 15 16 17 16 15 15 14 14 14 15 16 17 17
14 13 10 11 14 13 11 13 12 18 17 14 14 14 14 13 17 19 20 17 16 14 10 11 10 9 8 8 7 7 7 8 9 10 11 11 12 13 14 13 13 13 13 13 13 13 13 14 14
Wind_Direction
106 106 98 85 84 86 60 82 79 100 90 94 130 94 102 63 94 102 137 144 145 147 147 146 144 137 131 127 125 122 119 113 108 105 106 111 115 117 116 116 113 112 112 115 117 114 116 113 112
113 104 84 88 80 76 56 74 70 91 99 105 107 92 51 52 71 126 137 146 147 147 149 149 147 144 138 132 129 125 121 116 110 101 102 111 120 117 117 116 116 115 117 117 117 115 116 116 115
96 88 84 83 72 71 70 75 90 86 95 87 70 53 46 77 116 138 142 145 147 148 150 150 149 148 145 141 136 130 123 119 112 102 98 107 119 117 116 116 117 119 121 121 118 118 122 119 119
80 81 84 76 64 66 61 95 89 88 74 72 77 58 67 89 130 140 144 147 147 149 151 152 151 150 147 146 143 137 130 123 117 109 103 110 116 117 116 114 117 121 123 123 122 121 123 122 121
67 87 74 57 45 50 58 123 90 81 75 73 58 45 71 121 125 145 149 151 150 150 151 153 153 153 150 148 146 141 136 130 124 118 114 114 117 118 116 116 118 121 122 124 123 124 124 123 124
79 73 64 66 57 49 70 91 94 66 58 57 67 79 67 146 142 152 156 156 155 153 153 154 155 156 156 154 153 149 144 138 135 129 124 123 121 123 121 119 121 124 125 125 126 129 128 124 123
63 65 65 86 67 44 54 76 56 56 47 43 95 58 68 150 151 152 159 159 158 158 157 157 159 160 162 162 158 157 153 148 148 143 136 133 127 127 128 126 124 127 129 131 131 133 135 132 128
64 62 63 66 51 49 52 31 64 39 4 72 80 47 116 158 151 151 159 161 162 163 164 164 164 165 167 167 166 161 160 156 156 154 149 146 138 131 131 131 129 131 131 135 138 138 141 141 137
62 53 40 91 44 29 48 37 38 9 73 30 7 7 143 149 148 147 155 162 165 168 170 171 170 170 169 170 171 170 165 161 157 160 156 154 150 145 141 138 133 135 138 138 141 145 148 149 148
83 35 319 266 26 39 42 42 2 22 48 6 35 78 134 148 151 153 158 163 171 176 177 179 178 176 174 174 176 176 173 169 165 163 161 155 154 157 155 149 144 141 141 143 144 145 148 155 157
291 271 249 3 291 92 60 33 45 36 7 26 80 116 140 149 156 159 162 169 174 179 185 188 186 184 182 181 179 181 181 177 174 171 170 167 166 164 166 164 161 152 151 151 152 154 149 153 159
307 275 295 236 24 63 40 33 15 20 1 100 108 120 132 154 164 169 170 173 178 184 189 190 192 191 190 187 187 186 188 186 184 181 180 179 179 177 178 181 178 170 164 160 164 168 172 171 179
273 287 277 237 212 231 269 9 8 17 51 95 116 126 136 151 167 178 181 178 183 189 194 196 197 197 196 195 193 191 192 193 191 188 185 182 179 175 180 188 185 184 179 173 174 178 188 192 197
305 293 276 231 244 219 193 335 350 22 58 114 126 148 148 161 172 179 185 186 187 193 201 201 199 200 201 201 199 198 198 198 195 193 191 187 182 181 177 179 183 186 188 187 188 190 195 212 236
300 292 310 226 178 232 251 307 277 328 150 183 173 163 175 176 181 186 189 196 199 203 203 204 202 203 203 203 203 203 202 200 198 198 198 197 197 195 191 187 192 198 207 217 219 222 224 241 258
305 338 9 278 225 254 264 291 265 264 236 223 218 214 194 202 202 204 207 208 211 213 215 211 205 202 202 202 204 205 205 203 203 205 207 209 212 214 213 213 214 216 221 232 235 242 249 251 260
280 273 324 351 236 274 248 306 276 250 246 232 223 227 226 222 221 218 216 215 215 222 224 233 208 204 204 203 206 208 206 206 209 214 216 217 218 221 220 223 225 224 225 233 241 248 257 263 266
259 288 292 287 336 291 261 271 282 247 244 234 233 240 232 233 228 225 221 220 218 220 221 212 205 206 206 207 210 213 213 214 218 222 224 223 223 224 223 225 225 225 234 240 247 256 261 282 259
247 256 266 281 299 293 270 258 259 245 263 240 241 237 237 241 236 232 228 220 214 217 214 209 203 203 206 208 212 215 218 221 224 230 228 227 224 225 222 224 228 234 241 246 251 257 253 256 256
249 265 274 282 290 288 281 265 261 239 247 239 242 239 239 241 235 234 229 221 217 216 215 213 211 210 211 212 217 219 220 221 224 228 229 228 226 226 228 231 234 240 248 250 248 249 250 244 244
250 251 268 273 297 293 302 280 252 261 262 254 260 242 240 241 238 231 223 215 212 212 211 209 211 213 217 217 218 220 221 226 228 229 230 230 228 229 231 234 238 245 249 250 246 244 245 241 247
253 251 265 276 286 276 301 281 270 266 261 258 257 244 245 242 239 231 222 212 210 210 211 213 213 214 215 218 221 224 227 229 233 233 233 234 232 233 233 234 238 244 248 251 247 249 246 245 247
243 269 270 273 268 275 275 277 267 277 270 264 264 246 244 236 233 227 217 209 209 209 210 213 214 215 215 218 221 225 230 232 232 234 233 236 236 236 236 237 241 245 247 252 249 247 245 247 252
257 272 272 274 264 277 264 260 272 264 265 271 261 247 244 230 225 222 212 203 202 201 204 204 207 213 217 220 223 226 231 233 231 234 234 236 237 239 241 240 244 248 250 250 251 251 250 254 256
248 262 272 273 274 249 256 265 252 283 270 259 240 253 244 214 210 207 195 196 195 196 200 201 205 213 219 223 228 230 235 237 237 236 238 238 240 242 242 243 245 248 251 253 253 253 253 253 257
238 232 239 257 259 257 262 255 260 285 270 254 269 268 222 211 204 199 195 193 197 201 205 207 212 219 223 227 233 236 239 242 244 242 243 243 243 244 246 247 249 250 253 255 256 259 254 253 254
236 242 245 251 272 271 262 267 272 273 267 271 260 253 215 199 199 197 198 201 201 207 213 216 222 228 232 237 240 243 244 244 245 248 248 248 247 248 250 251 252 254 255 255 258 258 253 251 252
232 236 254 260 251 265 261 257 246 267 265 275 260 259 216 214 210 203 203 203 204 210 216 221 229 232 237 243 250 249 249 249 248 250 251 250 249 250 252 252 253 258 256 257 256 256 251 251 255
240 252 260 245 242 247 259 257 243 248 260 272 260 239 219 216 211 207 206 209 213 219 223 225 230 233 240 245 249 254 253 250 249 250 252 251 251 251 253 255 255 255 257 258 258 256 253 253 255
247 254 246 240 250 254 254 262 262 255 260 266 252 232 227 228 221 215 213 212 215 218 226 226 227 229 236 239 242 247 249 249 249 250 250 251 252 251 250 250 251 254 257 256 253 254 252 251 252